Tracking 17264 objects as of 1-September-2015
HD Live streaming from Space Station

COSMOS 1596

Track COSMOS 1596 now!
COSMOS 1596 is classified as:


NORAD ID: 15267
Int'l Code: 1984-096A
Perigee: 4,744.3 km
Apogee: 35,677.6 km
Inclination: 67.7 °
Period: 718.9 minutes
Semi major axis: 26581 km
RCS: 8.4284 m2 (large)
Launch date: September 7, 1984
Source: Commonwealth of Independent States (former USSR) (CIS)
Your satellite tracking list
Your tracking list is empty





NASA's NSSDC Master Catalog

Two Line Element Set (TLE):
1 15267U 84096A   15242.92813595 -.00000605 +00000-0 +00000-0 0  9996
2 15267 067.6681 043.6379 5818488 105.6714 011.5952 02.00319141226919

Source of the keplerian elements: AFSPC

N2YO: 329